Orbital Elements at Epoch 2459200.5 (2020-Dec-17.0) TDB
Reference: JPL 42 (heliocentric ecliptic J2000)
Element | Value | Uncertainty (1-sigma) | Units |
e | .1757589427114033 | 1.4478e-08 | |
a | 2.366707066863222 | 5.8322e-09 | au |
q | 1.950737135083735 | 3.466e-08 | au |
i | 4.78778640554968 | 4.3589e-07 | deg |
node | 187.4706771758536 | 7.863e-06 | deg |
peri | 321.0159420120291 | 1.084e-05 | deg |
M | 276.6282972726672 | 6.2605e-06 | deg |
tp | 2459508.486271877693 (2021-Oct-20.98627188) | 2.3725e-05 | TDB |
period | 1329.888370381333 3.64 | 4.9158e-06 1.346e-08 | d yr |
n | .2706994120843191 | 1.0006e-09 | deg/d |
Q | 2.782676998642708 | 6.8572e-09 | au |
|
| | Orbit Determination Parameters
Additional Information
|